Weather Roundup
Issued by NWS Chicago, IL

Home | Current Version | Previous Version | Graphics & Text | Print | Product List | Glossary On
Versions: 1 2 3 4 5 6 7 8 9 10 11 12 13 14 15 16 17 18 19 20 21 22 23 24 25 26 27 28 29 30 31 32 33 34 35 36 37 38 39 40 41 42 43 44 45 46 47 48 49 50
000
NZUS59 KLOT 212106
HRRLOT

CHICAGO AREA WEATHER ROUNDUP
NATIONAL WEATHER SERVICE CHICAGO/ROMEOVILLE IL
300 PM CST SUN DEC 21 2014

NOTE: "FAIR" INDICATES FEW OR NO CLOUDS BELOW 12,000 FEET WITH NO
SIGNIFICANT WEATHER AND/OR OBSTRUCTIONS TO VISIBILITY.

* THESE STATIONS ARE NOT UNDER NWS QUALITY CONTROL. THEY ALSO MAY NOT
  REPORT WEATHER SUCH AS PRECIPITATION OR FOG.

ILZ005-006-012>014-019>023-212200-
NORTHEAST ILLINOIS

CITY           SKY/WX    TMP DP  RH WIND       PRES   REMARKS
OHARE          CLOUDY    36  28  73 S14       30.08F
MIDWAY         CLOUDY    38  29  70 S12       30.10F
AURORA         CLOUDY    38  30  73 S15       30.07S HAZE
LANSING*       CLOUDY    36  29  76 S10       30.12S
JOLIET*        CLOUDY    37  30  77 S8        30.09F
WAUKEGAN       CLOUDY    37  29  72 S10       30.07R
DUPAGE AIRPORT CLOUDY    37  30  75 S14       30.06F
WHEELING       CLOUDY    37  28  70 S12       30.09F
KANKAKEE*      PTSUNNY   38  31  77 S12       30.11F
MORRIS*        CLOUDY    38  32  80 S12G17    30.07F
LEWIS AIRPORT* CLOUDY    37  30  77 S13       30.09S
NORTHERLY IS     N/A     37  28  70 S8          N/A
$$

WIZ051-052-058>065-066-070>072-212200-
SOUTHEAST WISCONSIN

CITY           SKY/WX    TMP DP  RH WIND       PRES   REMARKS
MILWAUKEE      CLOUDY    37  29  72 S10       30.07S
KENOSHA*       CLOUDY    37  30  75 S10       30.07S
RACINE*        CLOUDY    36  29  75 S12       30.09R
BURLINGTON     CLOUDY    34  29  82 S8        30.05S WCI  27
WAUKESHA       CLOUDY    34  30  86 S12       30.05F WCI  25
WEST BEND      CLOUDY    34  30  86 S7        30.04R WCI  28
$$

INZ001>003-010>013-019-020-212200-
NORTHWEST INDIANA

CITY           SKY/WX    TMP DP  RH WIND       PRES   REMARKS
GARY*          CLOUDY    37  25  60 S9        30.12F
MICHIGAN CITY* NOT AVBL
RENSSELAER*    NOT AVBL
VALPARAISO     CLOUDY    36  28  73 SE6       30.13F
$$

LMZ740>746-212200-
SOUTHERN LAKE MICHIGAN

STATION/POSITION TIME  SKY/WX   TEMP WIND        PRES    VSBY
                                AIR  DIR/SP/G
                 (UTC)          (F)  (DEG/KT/KT) (MB)    (MI)
HARRISON CRIB    2100            35  160/ 15/ 18   N/A
BURNHAM HARBOR   2100            37  160/  9/ 12   N/A
CALUMET HARBOR   2100            36  150/ 10/ 14 1018.3S
BURNS HARBOR     NOT AVBL
MICHIGAN CITY    NOT AVBL
$$

ABBREVIATIONS USED IN REMARKS
   TC - TEMPERATURE IN CELSIUS
  WCI - WIND CHILL INDEX
   HX - HEAT INDEX
  VSB - VISIBILITY
$$


USA.gov is the U.S. government's official web portal to all federal, state and local government web resources and services.